Location: Newark
(29.9790°N, 31.1340°E)
Time: 23:56:44
(UTC+00:00)

Vanguard 3 - Pass Details

Date: 24 January 2021
Orbit: 508 x 3262 km, 33.4° (Epoch: 06 March)

Event Time Altitude Azimuth Distance (km) Brightness Sun altitude
Exits shadow 04:15:08 - 283° (WNW) 3,524 9.7 -7.9°
Reaches altitude 10° 04:15:24 10° 283° (WNW) 3,447 9.7 -7.8°
Maximum altitude 04:24:45 80° 10° (N) 2,060 9.2 -5.9°
Drops below altitude 10° 04:41:30 10° 98° (E) 5,792 13.3 -2.5°
Sets 04:46:39 0° 100° (E) 7,042 14.2 -1.4°
